User: anonymous   Login
Location: Beugnon
(47.6222°N, 3.7850°E)
Time: 00:43:22
(UTC+00:00)
Language:

Cosmos 1437 - Orbit

View from above orbital plane
View from above orbital plane
View from above satellite
View from above satellite

Ground track
Ground track

The orbit data is extracted from the following two-line orbital elements,

1 13770U 83003A   20188.53148032  .00007110  00000-0  72192-4 0  9991
2 13770  81.1561 205.1847 0002376 195.2612 164.8571 15.64986132 60185
Epoch (UTC): 06 July 2020 12:45:19
Eccentricity: 0.0002376
inclination: 81.1561°
perigee height: 371 km
apogee height: 375 km
right ascension of ascending node: 205.1847°
argument of perigee: 195.2612°
revolutions per day: 15.64986132
mean anomaly at epoch: 164.8571°
orbit number at epoch: 6018

The dashed part of the orbit path shows where the satellite is in the earth's shadow,  

DLR